User: anonymous   Login
Location: Laterina
(43.5167°N, 11.7167°E)
Time: 04:22:47
(UTC+00:00)
Language:

Ariane Rocket - Orbit

View from above orbital plane
View from above orbital plane
View from above satellite
View from above satellite

Ground track
Ground track

The orbit data is extracted from the following two-line orbital elements,

1 23561U 95021B   20336.37050101 +.00000094 +00000-0 +46185-4 0  9996
2 23561 098.7042 017.9525 0007936 116.4541 254.9921 14.37995764342562
Epoch (UTC): 01 December 2020 08:53:31
Eccentricity: 0.0007936
inclination: 98.7042°
perigee height: 759 km
apogee height: 771 km
right ascension of ascending node: 17.9525°
argument of perigee: 116.4541°
revolutions per day: 14.37995764
mean anomaly at epoch: 254.9921°
orbit number at epoch: 34256

The dashed part of the orbit path shows where the satellite is in the earth's shadow,  

DLR